• In Germany
  • List of Countries
  • For 7 days
  • Water Temperature
  • Satellite Maps
  • Weather Map
  • Weather Widgets
  • user-avatar
    Login

    Hourly Weather Monteria

    Today, 17 January, Wednesday

    Time Temperature Precipitation Wind Pressure Humidity
    00:00 +26°C° 0.2 mm 2 mps 756 mmHg 89%
    01:00 +26°C° 0.2 mm 2 mps 757 mmHg 90%
    02:00 +26°C° 0.2 mm 2 mps 756 mmHg 90%
    03:00 +25°C° 0.2 mm 2 mps 756 mmHg 91%
    04:00 +25°C° 0.2 mm 2 mps 756 mmHg 91%
    05:00 +25°C° 0.3 mm 2 mps 756 mmHg 91%
    06:00 +25°C° 0.3 mm 2 mps 757 mmHg 91%
    07:00 +25°C° 0.3 mm 2 mps 757 mmHg 91%
    08:00 +27°C° 0.4 mm 2 mps 757 mmHg 84%
    09:00 +28°C° 0.4 mm 2 mps 757 mmHg 77%
    10:00 +30°C° 0.4 mm 2 mps 758 mmHg 70%
    11:00 +31°C° 0.2 mm 2 mps 757 mmHg 66%
    12:00 +32°C° 0.2 mm 2 mps 757 mmHg 62%
    13:00 +34°C° 0.2 mm 2 mps 756 mmHg 58%
    14:00 +34°C° 0.1 mm 2 mps 755 mmHg 59%
    15:00 +34°C° 0.1 mm 2 mps 755 mmHg 61%
    16:00 +33°C° 0.1 mm 3 mps 754 mmHg 62%
    17:00 +31°C° 0.1 mm 3 mps 754 mmHg 68%
    18:00 +29°C° 0.1 mm 3 mps 755 mmHg 75%
    19:00 +28°C° 0.1 mm 3 mps 755 mmHg 81%
    20:00 +27°C° 0.1 mm 3 mps 756 mmHg 82%
    21:00 +27°C° 0.1 mm 3 mps 756 mmHg 83%
    22:00 +27°C° 0.1 mm 3 mps 757 mmHg 85%
    23:00 +26°C° 0.3 mm 3 mps 757 mmHg 86%

    Tomorrow, 18 January, Thursday

    Time Temperature Precipitation Wind Pressure Humidity
    00:00 +26°C° 0.3 mm 3 mps 757 mmHg 88%
    01:00 +26°C° 0.3 mm 3 mps 757 mmHg 90%
    02:00 +26°C° 0.6 mm 3 mps 756 mmHg 90%
    03:00 +26°C° 0.6 mm 3 mps 756 mmHg 91%
    04:00 +25°C° 0.6 mm 2 mps 756 mmHg 92%
    05:00 +25°C° 0.6 mm 3 mps 756 mmHg 91%
    06:00 +25°C° 0.6 mm 3 mps 756 mmHg 91%
    07:00 +25°C° 0.6 mm 3 mps 757 mmHg 91%
    08:00 +27°C° 0.3 mm 3 mps 757 mmHg 84%
    09:00 +28°C° 0.3 mm 3 mps 758 mmHg 78%
    10:00 +30°C° 0.3 mm 3 mps 758 mmHg 71%
    11:00 +31°C° 0.4 mm 3 mps 757 mmHg 68%
    12:00 +33°C° 0.4 mm 3 mps 756 mmHg 64%
    13:00 +34°C° 0.4 mm 3 mps 756 mmHg 61%
    14:00 +33°C° 0.2 mm 3 mps 755 mmHg 62%
    15:00 +33°C° 0.2 mm 3 mps 754 mmHg 63%
    16:00 +33°C° 0.2 mm 3 mps 754 mmHg 64%
    17:00 +31°C° 0.3 mm 3 mps 754 mmHg 71%
    18:00 +29°C° 0.3 mm 3 mps 755 mmHg 78%
    19:00 +28°C° 0.3 mm 2 mps 755 mmHg 85%
    20:00 +27°C° 0.3 mm 2 mps 755 mmHg 86%
    21:00 +27°C° 0.3 mm 2 mps 756 mmHg 87%
    22:00 +27°C° 0.3 mm 2 mps 757 mmHg 88%
    23:00 +27°C° 1 mm 2 mps 757 mmHg 89%

    Day after tomorrow, 19 January, Friday

    Time Temperature Precipitation Wind Pressure Humidity
    00:00 +26°C° 1 mm 2 mps 756 mmHg 89%
    01:00 +26°C° 1 mm 2 mps 756 mmHg 90%
    02:00 +26°C° 0.3 mm 2 mps 756 mmHg 90%
    03:00 +26°C° 0.3 mm 2 mps 755 mmHg 91%
    04:00 +26°C° 0.3 mm 2 mps 755 mmHg 91%
    05:00 +26°C° 0.2 mm 2 mps 755 mmHg 91%
    06:00 +26°C° 0.2 mm 2 mps 756 mmHg 91%
    07:00 +25°C° 0.2 mm 2 mps 756 mmHg 91%
    08:00 +27°C° 0.1 mm 2 mps 757 mmHg 84%
    09:00 +28°C° 0.1 mm 2 mps 757 mmHg 77%
    10:00 +30°C° 0.1 mm 2 mps 757 mmHg 71%
    11:00 +31°C° 0.3 mm 2 mps 757 mmHg 67%
    12:00 +32°C° 0.3 mm 2 mps 756 mmHg 64%
    13:00 +33°C° 0.3 mm 1 mps 755 mmHg 60%
    14:00 +32°C° 0.3 mm 2 mps 754 mmHg 61%
    15:00 +32°C° 0.3 mm 2 mps 754 mmHg 63%
    16:00 +32°C° 0.3 mm 2 mps 753 mmHg 64%
    17:00 +31°C° 0.2 mm 2 mps 753 mmHg 71%
    18:00 +29°C° 0.2 mm 2 mps 754 mmHg 78%
    19:00 +28°C° 0.2 mm 3 mps 754 mmHg 85%
    20:00 +27°C° 0.3 mm 2 mps 755 mmHg 87%
    21:00 +27°C° 0.3 mm 2 mps 755 mmHg 88%
    22:00 +27°C° 0.3 mm 2 mps 756 mmHg 90%
    23:00 +27°C° 0.8 mm 2 mps 756 mmHg 90%

    20 January, Saturday

    Time Temperature Precipitation Wind Pressure Humidity
    00:00 +26°C° 0.8 mm 2 mps 755 mmHg 90%
    01:00 +26°C° 0.8 mm 2 mps 755 mmHg 90%
    02:00 +26°C° 0.3 mm 2 mps 755 mmHg 91%
    03:00 +26°C° 0.3 mm 2 mps 755 mmHg 91%
    04:00 +25°C° 0.3 mm 3 mps 754 mmHg 92%
    05:00 +25°C° 0.3 mm 3 mps 755 mmHg 92%
    06:00 +25°C° 0.3 mm 2 mps 755 mmHg 91%
    07:00 +25°C° 0.3 mm 2 mps 756 mmHg 91%
    08:00 +27°C° 0 mm 2 mps 756 mmHg 84%
    09:00 +29°C° 0 mm 2 mps 756 mmHg 76%
    10:00 +30°C° 0 mm 2 mps 757 mmHg 69%
    11:00 +32°C° 0 mm 2 mps 756 mmHg 65%
    12:00 +33°C° 0 mm 1 mps 755 mmHg 61%
    13:00 +34°C° 0 mm 1 mps 754 mmHg 56%
    14:00 +34°C° 0.1 mm 1 mps 754 mmHg 57%
    15:00 +34°C° 0.1 mm 2 mps 753 mmHg 58%
    16:00 +34°C° 0.1 mm 2 mps 752 mmHg 59%
    17:00 +32°C° 0.1 mm 2 mps 753 mmHg 67%
    18:00 +30°C° 0.1 mm 3 mps 753 mmHg 74%
    19:00 +28°C° 0.1 mm 3 mps 754 mmHg 82%
    20:00 +28°C° 0.3 mm 3 mps 754 mmHg 84%
    21:00 +27°C° 0.3 mm 3 mps 754 mmHg 87%
    22:00 +27°C° 0.3 mm 3 mps 755 mmHg 90%
    23:00 +27°C° 0.5 mm 2 mps 755 mmHg 90%

    21 January, Sunday

    Time Temperature Precipitation Wind Pressure Humidity
    00:00 +27°C° 0.5 mm 2 mps 754 mmHg 90%
    01:00 +27°C° 0.5 mm 2 mps 754 mmHg 90%
    02:00 +26°C° 0.5 mm 2 mps 754 mmHg 91%
    03:00 +26°C° 0.5 mm 2 mps 754 mmHg 91%
    04:00 +26°C° 0.5 mm 2 mps 753 mmHg 91%
    05:00 +26°C° 0.1 mm 2 mps 754 mmHg 91%
    06:00 +26°C° 0.1 mm 2 mps 754 mmHg 92%
    07:00 +26°C° 0.1 mm 3 mps 755 mmHg 92%
    08:00 +27°C° 0 mm 2 mps 755 mmHg 84%
    09:00 +29°C° 0 mm 2 mps 755 mmHg 77%
    10:00 +31°C° 0 mm 2 mps 756 mmHg 69%
    11:00 +32°C° 0 mm 2 mps 755 mmHg 65%
    12:00 +33°C° 0 mm 1 mps 754 mmHg 60%
    13:00 +34°C° 0 mm 1 mps 753 mmHg 55%
    14:00 +34°C° 0.1 mm 1 mps 752 mmHg 57%
    15:00 +35°C° 0.1 mm 2 mps 752 mmHg 58%
    16:00 +34°C° 0.1 mm 2 mps 751 mmHg 59%
    17:00 +32°C° 0.1 mm 2 mps 752 mmHg 67%
    18:00 +30°C° 0.1 mm 3 mps 752 mmHg 74%
    19:00 +29°C° 0.1 mm 3 mps 753 mmHg 81%
    20:00 +28°C° 0.1 mm 3 mps 753 mmHg 83%
    21:00 +28°C° 0.1 mm 3 mps 753 mmHg 86%
    22:00 +27°C° 0.1 mm 2 mps 754 mmHg 88%
    23:00 +27°C° 0.1 mm 2 mps 754 mmHg 88%

    22 January, Monday

    Time Temperature Precipitation Wind Pressure Humidity
    00:00 +27°C° 0.1 mm 2 mps 753 mmHg 89%
    01:00 +27°C° 0.1 mm 2 mps 753 mmHg 90%
    02:00 +27°C° 0.4 mm 2 mps 753 mmHg 91%
    03:00 +26°C° 0.4 mm 2 mps 753 mmHg 91%
    04:00 +26°C° 0.4 mm 2 mps 753 mmHg 92%
    05:00 +26°C° 0.1 mm 2 mps 753 mmHg 92%
    06:00 +26°C° 0.1 mm 2 mps 754 mmHg 91%
    07:00 +26°C° 0.1 mm 2 mps 754 mmHg 91%
    08:00 +28°C° 0 mm 3 mps 754 mmHg 83%
    09:00 +29°C° 0 mm 3 mps 755 mmHg 76%
    10:00 +31°C° 0 mm 3 mps 755 mmHg 68%
    11:00 +32°C° 0.1 mm 2 mps 754 mmHg 64%
    12:00 +33°C° 0.1 mm 1 mps 753 mmHg 60%
    13:00 +34°C° 0.1 mm 1 mps 753 mmHg 56%
    14:00 +34°C° 0.3 mm 1 mps 752 mmHg 58%
    15:00 +34°C° 0.3 mm 2 mps 751 mmHg 60%
    16:00 +34°C° 0.3 mm 2 mps 751 mmHg 62%
    17:00 +33°C° 0.1 mm 3 mps 751 mmHg 68%
    18:00 +30°C° 0.1 mm 3 mps 752 mmHg 75%
    19:00 +29°C° 0.1 mm 3 mps 752 mmHg 81%
    20:00 +28°C° 0.3 mm 3 mps 753 mmHg 83%
    21:00 +28°C° 0.3 mm 3 mps 753 mmHg 85%
    22:00 +28°C° 0.3 mm 3 mps 754 mmHg 87%
    23:00 +27°C° 1.3 mm 3 mps 754 mmHg 88%
    Show more